DW7955 Weather Reports


time (UTC)temp
C
wind
direction
speed
KPH
gust
KPH
rain 1hr
cm
rain 24hr
cm
rain mn
cm
humidity
%
barometer
mb
20260904094517 17 297 0.0 0.0 0.00 0.00 0.00 46 1001.5
20260904093016 18 297 0.0 0.0 0.00 0.00 0.00 44 1001.3
20260904091515 19 297 0.0 0.0 0.00 0.00 0.00 40 1001.3
20260904090019 20 297 0.0 1.6 0.00 0.00 0.00 40 1001.2
20260904084514 20 297 3.2 9.7 0.00 0.00 0.00 38 1001.0
20260904083016 20 5 3.2 9.7 0.00 0.00 0.00 42 1001.1
20260904081514 19 1 6.4 9.7 0.00 0.00 0.00 45 1001.2
20260904080011 18 343 3.2 6.4 0.00 0.00 0.00 46 1001.2
20260904074511 18 240 0.0 0.0 0.00 0.00 0.00 45 1001.3
20260904073009 18 234 1.6 4.8 0.00 0.00 0.00 44 1001.3
20260904071517 18 19 0.0 0.0 0.00 0.00 0.00 42 1001.1
20260904070002 18 19 0.0 0.0 0.00 0.00 0.00 40 1001.0
20260904064558 19 19 1.6 4.8 0.00 0.00 0.00 38 1000.8
20260904063108 21 33 1.6 4.8 0.00 0.00 0.00 35 1000.7
20260904061600 21 1 4.8 8.0 0.00 0.00 0.00 36 1000.5
20260904060109 21 244 0.0 1.6 0.00 0.00 0.00 33 1000.4
20260904054548 22 244 1.6 9.7 0.00 0.00 0.00 31 1000.3
20260904053048 25 240 4.8 8.0 0.00 0.00 0.00 27 1000.1
20260904051548 25 84 1.6 4.8 0.00 0.00 0.00 28 1000.2
20260904050046 25 73 1.6 11.3 0.00 0.00 0.00 27 1000.4
20260904044551 26 47 4.8 9.7 0.00 0.00 0.00 25 1000.4
20260904043046 26 80 6.4 12.9 0.00 0.00 0.00 25 1000.5
20260904041545 26 52 1.6 14.5 0.00 0.00 0.00 28 1000.6
20260904040044 25 36 8.0 9.7 0.00 0.00 0.00 30 1000.7
20260904034558 24 15 3.2 4.8 0.00 0.00 0.00 29 1000.6
20260904033043 25 14 0.0 3.2 0.00 0.00 0.00 27 1000.4
20260904031543 26 34 0.0 1.6 0.00 0.00 0.00 25 1000.3
20260904030043 27 19 0.0 3.2 0.00 0.00 0.00 22 1000.2
20260904024542 28 62 0.0 4.8 0.00 0.00 0.00 21 1000.2
20260904023042 28 92 3.2 6.4 0.00 0.00 0.00 21 1000.0
20260904021547 28 30 0.0 4.8 0.00 0.00 0.00 22 999.7
20260904020042 30 68 0.0 4.8 0.00 0.00 0.00 19 999.7
20260904014545 30 126 1.6 6.4 0.00 0.00 0.00 18 999.5
20260904013040 31 105 0.0 4.8 0.00 0.00 0.00 18 999.4
20260904011543 32 78 3.2 4.8 0.00 0.00 0.00 16 999.2
20260904010050 32 116 1.6 6.4 0.00 0.00 0.00 15 999.1
20260904004555 33 10 0.0 8.0 0.00 0.00 0.00 15 999.1
20260904003037 33 43 3.2 11.3 0.00 0.00 0.00 15 999.2
20260904001537 33 57 8.0 12.9 0.00 0.00 0.00 15 999.3
20260904000038 34 113 4.8 11.3 0.00 0.00 0.00 15 999.2
20260903234542 33 230 1.6 11.3 0.00 0.00 0.00 16 999.4
20260903233035 33 74 4.8 11.3 0.00 0.00 0.00 15 999.3
20260903231534 35 164 0.0 4.8 0.00 0.00 0.00 15 999.4
20260903230032 34 167 3.2 9.7 0.00 0.00 0.00 16 999.6
20260903224532 34 228 4.8 11.3 0.00 0.00 0.00 16 999.7
20260903223036 33 309 1.6 9.7 0.00 0.00 0.00 17 999.7
20260903221526 34 311 6.4 11.3 0.00 0.00 0.00 16 999.9
20260903220035 33 11 4.8 12.9 0.00 0.00 0.00 16 1000.0
20260903214522 33 214 6.4 9.7 0.00 0.00 0.00 17 1000.2
20260903213032 33 99 4.8 11.3 0.00 0.00 0.00 18 1000.4
20260903211547 32 72 4.8 19.3 0.00 0.00 0.00 18 1000.6
20260903210016 33 253 1.6 12.9 0.00 0.00 0.00 18 1000.7
20260903204514 32 144 3.2 14.5 0.00 0.00 0.00 18 1000.9
20260903203012 32 261 1.6 9.7 0.00 0.00 0.00 18 1001.1
20260903201510 32 284 4.8 11.3 0.00 0.00 0.00 18 1001.3
20260903200009 32 144 8.0 14.5 0.00 0.00 0.00 18 1001.6
20260903194506 31 223 3.2 11.3 0.00 0.00 0.00 19 1001.6
20260903193004 31 280 3.2 12.9 0.00 0.00 0.00 19 1002.0
20260903191503 31 128 1.6 14.5 0.00 0.00 0.00 21 1002.2
20260903190101 31 161 6.4 17.7 0.00 0.00 0.00 20 1002.3
20260903184603 31 38 1.6 12.9 0.00 0.00 0.00 20 1002.5
20260903183056 30 345 1.6 8.0 0.00 0.00 0.00 20 1002.7
20260903181554 30 209 4.8 14.5 0.00 0.00 0.00 22 1002.9
20260903180105 30 182 8.0 12.9 0.00 0.00 0.00 21 1003.1
20260903174609 30 1 4.8 8.0 0.00 0.00 0.00 22 1003.2
20260903173055 30 18 3.2 8.0 0.00 0.00 0.00 23 1003.4
20260903171551 29 284 6.4 11.3 0.00 0.00 0.00 23 1003.5
20260903170106 30 216 4.8 9.7 0.00 0.00 0.00 23 1003.4
20260903164552 28 313 0.0 6.4 0.00 0.00 0.00 24 1003.5
20260903163045 28 149 6.4 14.5 0.00 0.00 0.00 25 1003.6
20260903161544 28 138 1.6 11.3 0.00 0.00 0.00 26 1003.6
20260903160046 28 250 1.6 8.0 0.00 0.00 0.00 25 1003.7
20260903154540 27 53 4.8 14.5 0.00 0.00 0.00 26 1003.9
20260903153044 27 153 1.6 6.4 0.00 0.00 0.00 28 1003.9
20260903151544 26 281 0.0 4.8 0.00 0.00 0.00 28 1004.1
20260903150030 25 351 0.0 6.4 0.00 0.00 0.00 30 1004.2
20260903144628 25 327 1.6 4.8 0.00 0.00 0.00 31 1004.4
20260903143025 23 22 3.2 11.3 0.00 0.00 0.00 34 1004.2
20260903141523 23 87 6.4 12.9 0.00 0.00 0.00 35 1004.4
20260903140022 22 292 0.0 14.5 0.00 0.00 0.00 36 1004.3
20260903134520 21 88 3.2 11.3 0.00 0.00 0.00 38 1004.4
20260903133018 18 82 4.8 8.0 0.00 0.00 0.00 49 1004.2
20260903131517 17 244 0.0 1.6 0.00 0.00 0.00 51 1004.0
20260903130014 17 167 0.0 0.0 0.00 0.00 0.00 49 1004.1
20260903124512 17 49 0.0 6.4 0.00 0.00 0.00 52 1004.0
20260903123011 17 103 3.2 9.7 0.00 0.00 0.00 53 1003.9
20260903121507 17 351 0.0 1.6 0.00 0.00 0.00 43 1003.5
20260903120004 18 351 0.0 0.0 0.00 0.00 0.00 41 1003.3
20260903114502 18 351 0.0 0.0 0.00 0.00 0.00 39 1003.3
20260903113001 18 351 0.0 0.0 0.00 0.00 0.00 41 1003.2
20260903111625 19 351 0.0 0.0 0.00 0.00 0.00 39 1003.1
20260903110110 19 351 1.6 4.8 0.00 0.00 0.00 41 1003.1
20260903104622 20 351 0.0 3.2 0.00 0.00 0.00 37 1003.1
20260903103051 21 7 4.8 6.4 0.00 0.00 0.00 36 1003.2
20260903101551 22 351 1.6 9.7 0.00 0.00 0.00 33 1003.2
20260903100050 22 356 1.6 8.0 0.00 0.00 0.00 34 1003.2